﻿測定場所 (Monitoring sites),日付 (Measurement date),時間 (Measurement time),線量率 最大値 (max) μGy/h,線量率 最小値 (min) μGy/h,線量率 平均値 (average) μGy/h,
新宿 (Shinjuku),2011-05-01,23:00～23:59,0.0690,0.0644,0.0668,
新宿 (Shinjuku),2011-05-01,22:00～22:59,0.0694,0.0648,0.0669,
新宿 (Shinjuku),2011-05-01,21:00～21:59,0.0694,0.0631,0.0669,
新宿 (Shinjuku),2011-05-01,20:00～20:59,0.0702,0.0641,0.0672,
新宿 (Shinjuku),2011-05-01,19:00～19:59,0.0705,0.0642,0.0678,
新宿 (Shinjuku),2011-05-01,18:00～18:59,0.0711,0.0665,0.0688,
新宿 (Shinjuku),2011-05-01,17:00～17:59,0.0716,0.0657,0.0687,
新宿 (Shinjuku),2011-05-01,16:00～16:59,0.0699,0.0646,0.0672,
新宿 (Shinjuku),2011-05-01,15:00～15:59,0.0708,0.0655,0.0675,
新宿 (Shinjuku),2011-05-01,14:00～14:59,0.0701,0.0649,0.0673,
新宿 (Shinjuku),2011-05-01,13:00～13:59,0.0707,0.0650,0.0677,
新宿 (Shinjuku),2011-05-01,12:00～12:59,0.0711,0.0652,0.0679,
新宿 (Shinjuku),2011-05-01,11:00～11:59,0.0703,0.0638,0.0674,
新宿 (Shinjuku),2011-05-01,10:00～10:59,0.0716,0.0654,0.0677,
新宿 (Shinjuku),2011-05-01,09:00～09:59,0.0697,0.0658,0.0677,
新宿 (Shinjuku),2011-05-01,08:00～08:59,0.0698,0.0651,0.0677,
新宿 (Shinjuku),2011-05-01,07:00～07:59,0.0704,0.0652,0.0683,
新宿 (Shinjuku),2011-05-01,06:00～06:59,0.0716,0.0660,0.0688,
新宿 (Shinjuku),2011-05-01,05:00～05:59,0.0742,0.0686,0.0714,
新宿 (Shinjuku),2011-05-01,04:00～04:59,0.0717,0.0652,0.0675,
新宿 (Shinjuku),2011-05-01,03:00～03:59,0.0701,0.0653,0.0674,
新宿 (Shinjuku),2011-05-01,02:00～02:59,0.0703,0.0650,0.0678,
新宿 (Shinjuku),2011-05-01,01:00～01:59,0.0715,0.0649,0.0675,
新宿 (Shinjuku),2011-05-01,00:00～00:59,0.0701,0.0639,0.0675,
新宿 (Shinjuku),2011-04-30,23:00～23:59,0.0704,0.0657,0.0676,
新宿 (Shinjuku),2011-04-30,22:00～22:59,0.0705,0.0651,0.0674,
新宿 (Shinjuku),2011-04-30,21:00～21:59,0.0701,0.0642,0.0672,
新宿 (Shinjuku),2011-04-30,20:00～20:59,0.0697,0.0643,0.0673,
新宿 (Shinjuku),2011-04-30,19:00～19:59,0.0701,0.0656,0.0677,
新宿 (Shinjuku),2011-04-30,18:00～18:59,0.0704,0.0645,0.0676,
新宿 (Shinjuku),2011-04-30,17:00～17:59,0.0704,0.0652,0.0674,
新宿 (Shinjuku),2011-04-30,16:00～16:59,0.0711,0.0649,0.0680,
新宿 (Shinjuku),2011-04-30,15:00～15:59,0.0701,0.0653,0.0676,
新宿 (Shinjuku),2011-04-30,14:00～14:59,0.0704,0.0652,0.0680,
新宿 (Shinjuku),2011-04-30,13:00～13:59,0.0725,0.0652,0.0679,
新宿 (Shinjuku),2011-04-30,12:00～12:59,0.0708,0.0650,0.0682,
新宿 (Shinjuku),2011-04-30,11:00～11:59,0.0711,0.0644,0.0681,
新宿 (Shinjuku),2011-04-30,10:00～10:59,0.0703,0.0652,0.0680,
新宿 (Shinjuku),2011-04-30,09:00～09:59,0.0722,0.0660,0.0686,
新宿 (Shinjuku),2011-04-30,08:00～08:59,0.0711,0.0657,0.0680,
新宿 (Shinjuku),2011-04-30,07:00～07:59,0.0708,0.0656,0.0680,
新宿 (Shinjuku),2011-04-30,06:00～06:59,0.0715,0.0653,0.0681,
新宿 (Shinjuku),2011-04-30,05:00～05:59,0.0699,0.0647,0.0676,
新宿 (Shinjuku),2011-04-30,04:00～04:59,0.0722,0.0652,0.0672,
新宿 (Shinjuku),2011-04-30,03:00～03:59,0.0689,0.0652,0.0668,
新宿 (Shinjuku),2011-04-30,02:00～02:59,0.0703,0.0645,0.0674,
新宿 (Shinjuku),2011-04-30,01:00～01:59,0.0704,0.0638,0.0676,
新宿 (Shinjuku),2011-04-30,00:00～00:59,0.0693,0.0649,0.0672,
新宿 (Shinjuku),2011-04-29,23:00～23:59,0.0696,0.0645,0.0673,
新宿 (Shinjuku),2011-04-29,22:00～22:59,0.0701,0.0642,0.0671,
新宿 (Shinjuku),2011-04-29,21:00～21:59,0.0708,0.0653,0.0677,
新宿 (Shinjuku),2011-04-29,20:00～20:59,0.0708,0.0652,0.0679,
新宿 (Shinjuku),2011-04-29,19:00～19:59,0.0700,0.0658,0.0679,
新宿 (Shinjuku),2011-04-29,18:00～18:59,0.0705,0.0650,0.0676,
新宿 (Shinjuku),2011-04-29,17:00～17:59,0.0731,0.0637,0.0679,
新宿 (Shinjuku),2011-04-29,16:00～16:59,0.0713,0.0656,0.0684,
新宿 (Shinjuku),2011-04-29,15:00～15:59,0.0710,0.0649,0.0676,
新宿 (Shinjuku),2011-04-29,14:00～14:59,0.0707,0.0649,0.0676,
新宿 (Shinjuku),2011-04-29,13:00～13:59,0.0701,0.0641,0.0678,
新宿 (Shinjuku),2011-04-29,12:00～12:59,0.0709,0.0652,0.0677,
新宿 (Shinjuku),2011-04-29,11:00～11:59,0.0714,0.0656,0.0681,
新宿 (Shinjuku),2011-04-29,10:00～10:59,0.0719,0.0661,0.0682,
新宿 (Shinjuku),2011-04-29,09:00～09:59,0.0710,0.0652,0.0682,
新宿 (Shinjuku),2011-04-29,08:00～08:59,0.0708,0.0660,0.0683,
新宿 (Shinjuku),2011-04-29,07:00～07:59,0.0720,0.0659,0.0685,
新宿 (Shinjuku),2011-04-29,06:00～06:59,0.0708,0.0651,0.0676,
新宿 (Shinjuku),2011-04-29,05:00～05:59,0.0706,0.0649,0.0676,
新宿 (Shinjuku),2011-04-29,04:00～04:59,0.0706,0.0645,0.0674,
新宿 (Shinjuku),2011-04-29,03:00～03:59,0.0697,0.0649,0.0673,
新宿 (Shinjuku),2011-04-29,02:00～02:59,0.0701,0.0642,0.0674,
新宿 (Shinjuku),2011-04-29,01:00～01:59,0.0702,0.0642,0.0674,
新宿 (Shinjuku),2011-04-29,00:00～00:59,0.0696,0.0652,0.0673,
新宿 (Shinjuku),2011-04-28,23:00～23:59,0.0712,0.0652,0.0678,
新宿 (Shinjuku),2011-04-28,22:00～22:59,0.0716,0.0652,0.0678,
新宿 (Shinjuku),2011-04-28,21:00～21:59,0.0710,0.0653,0.0677,
新宿 (Shinjuku),2011-04-28,20:00～20:59,0.0710,0.0653,0.0681,
新宿 (Shinjuku),2011-04-28,19:00～19:59,0.0707,0.0653,0.0678,
新宿 (Shinjuku),2011-04-28,18:00～18:59,0.0708,0.0645,0.0679,
新宿 (Shinjuku),2011-04-28,17:00～17:59,0.0720,0.0660,0.0684,
新宿 (Shinjuku),2011-04-28,16:00～16:59,0.0708,0.0649,0.0682,
新宿 (Shinjuku),2011-04-28,15:00～15:59,0.0711,0.0657,0.0683,
新宿 (Shinjuku),2011-04-28,14:00～14:59,0.0711,0.0658,0.0687,
新宿 (Shinjuku),2011-04-28,13:00～13:59,0.0720,0.0661,0.0687,
新宿 (Shinjuku),2011-04-28,12:00～12:59,0.0725,0.0658,0.0689,
新宿 (Shinjuku),2011-04-28,11:00～11:59,0.0719,0.0666,0.0688,
新宿 (Shinjuku),2011-04-28,10:00～10:59,0.0723,0.0660,0.0690,
新宿 (Shinjuku),2011-04-28,09:00～09:59,0.0722,0.0669,0.0687,
新宿 (Shinjuku),2011-04-28,08:00～08:59,0.0713,0.0661,0.0690,
新宿 (Shinjuku),2011-04-28,07:00～07:59,0.0722,0.0654,0.0684,
新宿 (Shinjuku),2011-04-28,06:00～06:59,0.0714,0.0659,0.0687,
新宿 (Shinjuku),2011-04-28,05:00～05:59,0.0731,0.0670,0.0698,
新宿 (Shinjuku),2011-04-28,04:00～04:59,0.0742,0.0684,0.0717,
新宿 (Shinjuku),2011-04-28,03:00～03:59,0.0720,0.0670,0.0698,
新宿 (Shinjuku),2011-04-28,02:00～02:59,0.0737,0.0666,0.0703,
新宿 (Shinjuku),2011-04-28,01:00～01:59,0.0729,0.0664,0.0696,
新宿 (Shinjuku),2011-04-28,00:00～00:59,0.0712,0.0652,0.0694,
新宿 (Shinjuku),2011-04-27,23:00～23:59,0.0739,0.0673,0.0704,
新宿 (Shinjuku),2011-04-27,22:00～22:59,0.0722,0.0669,0.0701,
新宿 (Shinjuku),2011-04-27,21:00～21:59,0.0720,0.0670,0.0692,
新宿 (Shinjuku),2011-04-27,20:00～20:59,0.0713,0.0659,0.0688,
新宿 (Shinjuku),2011-04-27,19:00～19:59,0.0715,0.0664,0.0691,
新宿 (Shinjuku),2011-04-27,18:00～18:59,0.0711,0.0645,0.0690,
新宿 (Shinjuku),2011-04-27,17:00～17:59,0.0711,0.0661,0.0689,
新宿 (Shinjuku),2011-04-27,16:00～16:59,0.0716,0.0660,0.0688,
新宿 (Shinjuku),2011-04-27,15:00～15:59,0.0729,0.0645,0.0688,
新宿 (Shinjuku),2011-04-27,14:00～14:59,0.0716,0.0656,0.0689,
新宿 (Shinjuku),2011-04-27,13:00～13:59,0.0716,0.0652,0.0692,
新宿 (Shinjuku),2011-04-27,12:00～12:59,0.0721,0.0670,0.0697,
新宿 (Shinjuku),2011-04-27,11:00～11:59,0.0714,0.0671,0.0692,
新宿 (Shinjuku),2011-04-27,10:00～10:59,0.0726,0.0670,0.0693,
新宿 (Shinjuku),2011-04-27,09:00～09:59,0.0718,0.0666,0.0694,
新宿 (Shinjuku),2011-04-27,08:00～08:59,0.0720,0.0662,0.0695,
新宿 (Shinjuku),2011-04-27,07:00～07:59,0.0729,0.0668,0.0698,
新宿 (Shinjuku),2011-04-27,06:00～06:59,0.0729,0.0670,0.0694,
新宿 (Shinjuku),2011-04-27,05:00～05:59,0.0712,0.0664,0.0690,
新宿 (Shinjuku),2011-04-27,04:00～04:59,0.0722,0.0667,0.0691,
新宿 (Shinjuku),2011-04-27,03:00～03:59,0.0717,0.0672,0.0691,
新宿 (Shinjuku),2011-04-27,02:00～02:59,0.0723,0.0662,0.0692,
新宿 (Shinjuku),2011-04-27,01:00～01:59,0.0715,0.0672,0.0695,
新宿 (Shinjuku),2011-04-27,00:00～00:59,0.0721,0.0666,0.0692,
新宿 (Shinjuku),2011-04-26,23:00～23:59,0.0720,0.0669,0.0691,
新宿 (Shinjuku),2011-04-26,22:00～22:59,0.0720,0.0655,0.0694,
新宿 (Shinjuku),2011-04-26,21:00～21:59,0.0722,0.0667,0.0694,
新宿 (Shinjuku),2011-04-26,20:00～20:59,0.0721,0.0666,0.0694,
新宿 (Shinjuku),2011-04-26,19:00～19:59,0.0720,0.0665,0.0693,
新宿 (Shinjuku),2011-04-26,18:00～18:59,0.0729,0.0655,0.0687,
新宿 (Shinjuku),2011-04-26,17:00～17:59,0.0708,0.0659,0.0688,
新宿 (Shinjuku),2011-04-26,16:00～16:59,0.0720,0.0659,0.0697,
新宿 (Shinjuku),2011-04-26,15:00～15:59,0.0721,0.0664,0.0692,
新宿 (Shinjuku),2011-04-26,14:00～14:59,0.0713,0.0666,0.0691,
新宿 (Shinjuku),2011-04-26,13:00～13:59,0.0732,0.0669,0.0696,
新宿 (Shinjuku),2011-04-26,12:00～12:59,0.0731,0.0670,0.0694,
新宿 (Shinjuku),2011-04-26,11:00～11:59,0.0722,0.0671,0.0696,
新宿 (Shinjuku),2011-04-26,10:00～10:59,0.0723,0.0670,0.0696,
新宿 (Shinjuku),2011-04-26,09:00～09:59,0.0730,0.0669,0.0703,
新宿 (Shinjuku),2011-04-26,08:00～08:59,0.0728,0.0674,0.0703,
新宿 (Shinjuku),2011-04-26,07:00～07:59,0.0728,0.0662,0.0702,
新宿 (Shinjuku),2011-04-26,06:00～06:59,0.0722,0.0664,0.0696,
新宿 (Shinjuku),2011-04-26,05:00～05:59,0.0720,0.0658,0.0693,
新宿 (Shinjuku),2011-04-26,04:00～04:59,0.0709,0.0653,0.0688,
新宿 (Shinjuku),2011-04-26,03:00～03:59,0.0719,0.0673,0.0693,
新宿 (Shinjuku),2011-04-26,02:00～02:59,0.0724,0.0666,0.0690,
新宿 (Shinjuku),2011-04-26,01:00～01:59,0.0709,0.0664,0.0691,
新宿 (Shinjuku),2011-04-26,00:00～00:59,0.0724,0.0660,0.0690,
新宿 (Shinjuku),2011-04-25,23:00～23:59,0.0712,0.0663,0.0689,
新宿 (Shinjuku),2011-04-25,22:00～22:59,0.0723,0.0662,0.0689,
新宿 (Shinjuku),2011-04-25,21:00～21:59,0.0715,0.0657,0.0691,
新宿 (Shinjuku),2011-04-25,20:00～20:59,0.0727,0.0662,0.0693,
新宿 (Shinjuku),2011-04-25,19:00～19:59,0.0722,0.0666,0.0695,
新宿 (Shinjuku),2011-04-25,18:00～18:59,0.0727,0.0662,0.0694,
新宿 (Shinjuku),2011-04-25,17:00～17:59,0.0718,0.0667,0.0696,
新宿 (Shinjuku),2011-04-25,16:00～16:59,0.0736,0.0664,0.0701,
新宿 (Shinjuku),2011-04-25,15:00～15:59,0.0730,0.0680,0.0706,
新宿 (Shinjuku),2011-04-25,14:00～14:59,0.0742,0.0628,0.0705,
新宿 (Shinjuku),2011-04-25,13:00～13:59,0.0737,0.0674,0.0708,
新宿 (Shinjuku),2011-04-25,12:00～12:59,0.0725,0.0673,0.0699,
新宿 (Shinjuku),2011-04-25,11:00～11:59,0.0720,0.0671,0.0699,
新宿 (Shinjuku),2011-04-25,10:00～10:59,0.0726,0.0674,0.0704,
新宿 (Shinjuku),2011-04-25,09:00～09:59,0.0732,0.0680,0.0703,
新宿 (Shinjuku),2011-04-25,08:00～08:59,0.0732,0.0665,0.0702,
新宿 (Shinjuku),2011-04-25,07:00～07:59,0.0736,0.0674,0.0701,
新宿 (Shinjuku),2011-04-25,06:00～06:59,0.0713,0.0670,0.0694,
新宿 (Shinjuku),2011-04-25,05:00～05:59,0.0717,0.0662,0.0691,
新宿 (Shinjuku),2011-04-25,04:00～04:59,0.0716,0.0661,0.0691,
新宿 (Shinjuku),2011-04-25,03:00～03:59,0.0717,0.0668,0.0691,
新宿 (Shinjuku),2011-04-25,02:00～02:59,0.0716,0.0662,0.0690,
新宿 (Shinjuku),2011-04-25,01:00～01:59,0.0722,0.0669,0.0692,
新宿 (Shinjuku),2011-04-25,00:00～00:59,0.0719,0.0658,0.0691,
